Regional Weather Roundup
Issued by NWS

Home | Current Version | Previous Version | Graphics & Text | Print | Product List | Glossary On
Versions: 1 2 3 4 5 6 7 8 9 10 11 12 13 14 15 16 17 18 19 20 21 22 23 24 25 26 27 28 29 30 31 32 33 34 35 36 37 38 39 40 41 42 43 44 45 46 47 48 49 50
000
ASUS43 KFSD 121410
RWRSD

WEATHER ROUNDUP FOR SOUTH DAKOTA
NATIONAL WEATHER SERVICE SIOUX FALLS SD
800 AM CST FRI FEB 12 2016

NOTE: "FAIR" INDICATES FEW OR NO CLOUDS BELOW 12,000 FEET WITH NO
SIGNIFICANT WEATHER AND/OR OBSTRUCTIONS TO VISIBILITY.


SDZ001>005-009-010-012>017-121500-
NORTHWEST AND NORTH CENTRAL SOUTH DAKOTA

CITY           SKY/WX    TMP DP  RH WIND       PRES   REMARKS
BUFFALO          N/A     25  20  81 NE8       30.31R WCI  16
FAITH            N/A     21  15  78 NE12      30.41R WCI   9
MOBRIDGE       CLOUDY    18  12  77 N10       30.45R WCI   6
$$

SDZ012>016-024>037-041>051-057-063-072>074-121500-
SOUTHWEST AND SOUTH CENTRAL SOUTH DAKOTA

CITY           SKY/WX    TMP DP  RH WIND       PRES   REMARKS
RAPID CTY ARPT CLOUDY    29  26  89 NE8       30.35R WCI  21
PIERRE         CLOUDY    21  14  74 N8        30.45R WCI  11
CUSTER         CLOUDY    26  20  77 N7        30.24R WCI  18
ELLSWORTH AFB  FLURRIES  29  27  93 NE7       30.34  WCI  21
PHILIP         CLOUDY    25  21  85 NE8       30.43R WCI  16
PINE RIDGE     CLOUDY    31  28  89 N3        30.35R
SPEARFISH      CLOUDY    32  27  80 NW6       30.33R WCI  26
WINNER         CLOUDY    23  17  78 N9        30.43R WCI  13
$$

SDZ004>011-016>023-039-040-121500-
NORTHEAST SOUTH DAKOTA

CITY           SKY/WX    TMP DP  RH WIND       PRES   REMARKS
ABERDEEN       CLOUDY    11   3  70 N14       30.51R WCI  -5
WATERTOWN      CLOUDY     5  -2  72 N15       30.43R WCI -13
BROOKINGS      FLURRIES   9   4  80 N13       30.41R WCI  -7
SISSETON         N/A      0  -6  76 N13       30.49R WCI -18
$$

SDZ017-020-022-023-036>040-048>070-121500-
SOUTHEAST SOUTH DAKOTA

CITY           SKY/WX    TMP DP  RH WIND       PRES   REMARKS
SIOUX FALLS    CLOUDY    11   6  81 N10       30.42R WCI  -3
HURON          CLOUDY    12   7  80 N13       30.49R WCI  -3
CHAMBERLAIN    CLOUDY    20  16  83 N12       30.45R WCI   8
MITCHELL       CLOUDY    16  10  77 N13       30.48R WCI   2
YANKTON        CLOUDY    18  10  73 N14       30.44R WCI   4
$$

ABBREVIATIONS USED IN REMARKS
   TC - TEMPERATURE IN CELSIUS
  WCI - WIND CHILL INDEX
   HX - HEAT INDEX
  VSB - VISIBILITY




USA.gov is the U.S. government's official web portal to all federal, state and local government web resources and services.